[[{"header":{"parameterUnit":"m.s-1","parameterCategory":1,"la1":30.2991,"la2":30.254,"lo1":-89.0895,"lo2":-89.0444,"dy":0.0017,"dx":0.0017,"nx":28,"ny":28,"refTime":"2024-05-27T09:00:00:Z","depth":0,"parameterNumber":2,"parameterNumberName":"U-component_of_WINDS"},"data":[0,0,0,0,0,0,0,0,0,0,0,0,0,0,0,0,0,0,0,0,0,0,0,0,0,0,0,0,0,0,0,0,0,0,0,0,0,0,0,0,0,0,0,0,0,0,0,0,0,0,0,0,0,0,0,0,0,0,0.7444,0.7446,0,0.7625,0.7627,0.7629,0.7699,0.7698,0.7698,0.7697,0.7887,0.7892,0.7897,0,0,0,0,0,0,0,0,0,0,0,0,0,0.7161,0.7166,0.7443,0.7446,0.7448,0.7624,0.7627,0.7629,0.7699,0.7698,0.7698,0.7697,0.7885,0.7891,0.7898,0,0,0,0,0,0,0,0,0,0,0,0,0,0.7307,0.7167,0.7443,0.7504,0.7511,0.7624,0.7627,0.763,0.7699,0.7698,0.7698,0.7697,0.7883,0.7891,0.7899,0.7966,0,0,0.7924,0.7928,0,0,0,0,0,0,0,0,0.7299,0.7317,0.7493,0.75,0.7508,0.7638,0.7597,0.7743,0.7699,0.7628,0.7697,0.7696,0.7805,0.782,0.7855,0.7974,0.7983,0.7925,0.793,0.7934,0.7936,0,0,0,0,0,0,0,0.7288,0.731,0.7515,0.7495,0.7505,0.7523,0.7543,0.7625,0.7719,0.7634,0.764,0.766,0.7809,0.7847,0.786,0.7985,0.7925,0.7932,0.7937,0.794,0.8169,0.817,0,0,0,0,0,0,0.7268,0.7301,0.751,0.7521,0.7399,0.7529,0.7551,0.7597,0.7718,0.7735,0.766,0.7662,0.7833,0.7851,0.7867,0.7953,0.7933,0.7941,0.7946,0.8168,0.8169,0.817,0,0,0,0,0,0,0.7261,0.7286,0.7502,0.7412,0.7441,0.7535,0.7586,0.7601,0.764,0.7738,0.7755,0.7682,0.7833,0.7856,0.794,0.7961,0.7945,0.7952,0.8166,0.8168,0.817,0.8126,0,0,0,0,0,0,0.7253,0.7283,0.7308,0.7412,0.7446,0.7571,0.7587,0.7606,0.7653,0.7658,0.7763,0.7779,0.7835,0.7928,0.7949,0.7972,0.7959,0.8165,0.8167,0.8169,0.8126,0.8125,0.8125,0,0,0,0,0,0.7243,0.729,0.7309,0.7334,0.748,0.7572,0.7591,0.7653,0.7655,0.7681,0.7745,0.7776,0.7955,0.7936,0.796,0.7986,0.8164,0.8166,0.8169,0.8126,0.8126,0.8125,0,0,0,0,0,0,0.7187,0.7304,0.7328,0.7409,0.748,0.7584,0.7619,0.7651,0.7724,0.7725,0.78,0.7823,0.7901,0.7953,0.7929,0.8057,0.8062,0.8069,0.8021,0.8021,0.8021,0.8007,0.7966,0,0,0,0,0,0.7184,0.7248,0.7348,0.741,0.7445,0.7526,0.7568,0.761,0.7686,0.7717,0.7786,0.7861,0.7934,0.7981,0.8053,0.8133,0.8158,0.8163,0.8163,0.8163,0.8168,0.8215,0.8218,0.8178,0.8178,0.8178,0,0,0.7178,0.7251,0.7287,0.7401,0.7461,0.7526,0.755,0.7619,0.7669,0.7728,0.7812,0.7865,0.7953,0.8036,0.8076,0.8081,0.8185,0.8166,0.8165,0.8171,0.8218,0.8221,0.8225,0.818,0.818,0.8179,0,0,0.7203,0.7263,0.7322,0.7381,0.7471,0.7525,0.7538,0.7638,0.7675,0.776,0.7806,0.7867,0.7991,0.8052,0.8099,0.8146,0.8177,0.8167,0.8167,0.8211,0.8214,0.8218,0.8234,0.824,0.8173,0.8173,0.8173,0,0.7185,0.7285,0.7349,0.7415,0.7464,0.7519,0.758,0.7634,0.7743,0.7776,0.778,0.7937,0.8,0.8098,0.8109,0.8145,0.8164,0.8156,0.8209,0.8212,0.8216,0.8233,0.8239,0.8171,0.8171,0.8171,0.8171,0,0.7259,0.7328,0.7365,0.7467,0.7521,0.7584,0.7658,0.7704,0.7741,0.7794,0.7881,0.7958,0.8047,0.8074,0.8111,0.8177,0.8177,0.8194,0.82,0.8217,0.8234,0.8241,0.8168,0.8169,0.8169,0.817,0,0,0.7253,0.739,0.7402,0.7449,0.7552,0.7607,0.7673,0.7759,0.7798,0.7871,0.7929,0.8032,0.8048,0.8102,0.8146,0.8185,0.8217,0.8197,0.8201,0.8198,0.8295,0.8282,0.8288,0.8239,0.824,0.8241,0.8288,0,0.7291,0.7409,0.7469,0.7562,0.7627,0.768,0.7738,0.7807,0.7859,0.7922,0.798,0.8052,0.8068,0.81,0.8141,0.8204,0.8238,0.8202,0.8294,0.8296,0.827,0.8297,0.8284,0.8323,0.8295,0.8296,0.8297,0,0.7351,0.7422,0.7522,0.7617,0.7646,0.7697,0.778,0.784,0.792,0.7956,0.8015,0.8058,0.813,0.8131,0.8232,0.8206,0.8248,0.8285,0.8288,0.8299,0.8297,0.8309,0.8338,0.8343,0.8308,0.8307,0.8306,0,0.7336,0.7458,0.7533,0.7572,0.7685,0.7719,0.7768,0.7847,0.7895,0.7969,0.8001,0.8083,0.8127,0.819,0.8254,0.8249,0.8349,0.8356,0.8381,0.838,0.84,0.8398,0.8436,0.8426,0.8426,0.8426,0.8426,0,0.7372,0.743,0.7528,0.7574,0.7642,0.771,0.7775,0.7828,0.7899,0.7957,0.8009,0.8063,0.8145,0.8209,0.826,0.8336,0.8356,0.8387,0.84,0.8383,0.8379,0.8411,0.841,0.8428,0.8427,0.8427,0.8427,0,0.7367,0.7434,0.752,0.7619,0.7646,0.7691,0.7777,0.7825,0.7879,0.7952,0.7973,0.8059,0.8137,0.8208,0.8312,0.8347,0.8424,0.844,0.8396,0.8403,0.8425,0.8422,0.8485,0.8497,0.8479,0.8479,0.8479,0,0.7385,0.7431,0.7536,0.7578,0.7625,0.7693,0.7742,0.7811,0.786,0.7955,0.7991,0.8073,0.8142,0.8265,0.8338,0.8418,0.8437,0.8453,0.8449,0.843,0.8437,0.8433,0.8439,0.8452,0.8452,0.8452,0.8452,0,0.741,0.7441,0.7509,0.7589,0.7646,0.7712,0.778,0.7812,0.7894,0.7947,0.8027,0.808,0.8186,0.8268,0.8356,0.8408,0.8444,0.8453,0.8463,0.8446,0.8418,0.8433,0.8395,0.8451,0.8451,0.8451,0.8451,0.8451,0.7418,0.7461,0.7541,0.7616,0.7674,0.7736,0.7786,0.7845,0.7913,0.8004,0.8041,0.8123,0.8203,0.8325,0.8376,0.8442,0.8449,0.8464,0.8468,0.847,0.8467,0.8407,0.8459,0.8459,0.8459,0.8459,0.8459,0,0.7446,0.75,0.7567,0.766,0.7719,0.7746,0.7823,0.7871,0.7941,0.8012,0.8079,0.8171,0.825,0.8328,0.8411,0.8449,0.8468,0.8469,0.8467,0.8478,0.8456,0.8439,0.8452,0.8452,0.8452,0.8452,0.8452,0.8452,0.7467,0.7542,0.7583,0.7688,0.7742,0.7821,0.7863,0.7921,0.7978,0.8078,0.8143,0.8193,0.8268,0.8357,0.843,0.8452,0.848,0.8476,0.8502,0.848,0.848,0.8479,0.8463,0.8482,0.8482,0.8518,0.8519,0.8519]},{"header":{"parameterUnit":"m.s-1","parameterCategory":1,"la1":30.2991,"la2":30.254,"lo1":-89.0895,"lo2":-89.0444,"dy":0.0017,"dx":0.0017,"nx":28,"ny":28,"refTime":"2024-05-27T09:00:00:Z","depth":0,"parameterNumber":3,"parameterNumberName":"V-component_of_WINDS"},"data":[0,0,0,0,0,0,0,0,0,0,0,0,0,0,0,0,0,0,0,0,0,0,0,0,0,0,0,0,0,0,0,0,0,0,0,0,0,0,0,0,0,0,0,0,0,0,0,0,0,0,0,0,0,0,0,0,0,0,3.0399,3.0399,0,3.0381,3.038,3.038,3.0352,3.0351,3.0351,3.035,3.0329,3.0328,3.0328,0,0,0,0,0,0,0,0,0,0,0,0,0,3.0409,3.0409,3.0399,3.0399,3.0399,3.0381,3.038,3.038,3.0352,3.0351,3.035,3.035,3.0329,3.0328,3.0328,0,0,0,0,0,0,0,0,0,0,0,0,0,3.0399,3.0409,3.0399,3.0383,3.0381,3.0381,3.038,3.038,3.0352,3.0351,3.035,3.035,3.0329,3.0329,3.0328,3.0342,0,0,3.0328,3.0328,0,0,0,0,0,0,0,0,3.04,3.0399,3.0385,3.0384,3.0382,3.0368,3.0376,3.0367,3.0352,3.0363,3.035,3.0349,3.0342,3.0341,3.0339,3.0341,3.0341,3.0328,3.0328,3.0328,3.0328,0,0,0,0,0,0,0,3.04,3.0399,3.0392,3.0385,3.0383,3.0375,3.0373,3.0374,3.0357,3.0362,3.036,3.0358,3.0341,3.0339,3.0338,3.034,3.0328,3.0328,3.0328,3.0328,3.0355,3.0356,0,0,0,0,0,0,3.0404,3.04,3.0392,3.0391,3.0389,3.0376,3.0373,3.0373,3.0357,3.0354,3.0359,3.0357,3.034,3.0338,3.0337,3.0353,3.0328,3.0328,3.0327,3.0354,3.0355,3.0356,0,0,0,0,0,0,3.0404,3.0403,3.0393,3.0395,3.0393,3.0377,3.0376,3.0373,3.0371,3.0354,3.0351,3.036,3.0339,3.0337,3.0342,3.0352,3.0327,3.0327,3.0353,3.0354,3.0355,3.0386,0,0,0,0,0,0,3.0405,3.0404,3.0409,3.0396,3.0393,3.0399,3.0377,3.0373,3.0371,3.0368,3.0355,3.0352,3.0338,3.0342,3.0342,3.0352,3.0327,3.0352,3.0354,3.0355,3.0384,3.0388,3.0391,0,0,0,0,0,3.0405,3.0418,3.0409,3.0409,3.04,3.0399,3.0398,3.0383,3.0372,3.0377,3.0367,3.0352,3.0351,3.0343,3.0342,3.0352,3.0351,3.0353,3.0355,3.0382,3.0387,3.0391,0,0,0,0,0,0,3.0431,3.0415,3.0406,3.0415,3.0409,3.0394,3.04,3.0388,3.0385,3.0382,3.0363,3.036,3.0367,3.036,3.0351,3.0366,3.0349,3.0351,3.037,3.0375,3.0378,3.038,3.0327,0,0,0,0,0,3.0439,3.044,3.0426,3.0435,3.0432,3.0417,3.0416,3.0405,3.0398,3.0395,3.0385,3.0377,3.0376,3.0375,3.0372,3.0383,3.038,3.0389,3.0393,3.0396,3.0398,3.0404,3.0409,3.0362,3.0362,3.0362,0,0,3.0453,3.0444,3.0446,3.044,3.0434,3.0435,3.0415,3.0417,3.0418,3.0395,3.0399,3.0391,3.0382,3.039,3.0393,3.0384,3.041,3.0399,3.0401,3.0401,3.0407,3.0411,3.0415,3.0363,3.0363,3.0363,0,0,3.048,3.0473,3.048,3.0475,3.0467,3.0457,3.0459,3.0447,3.0441,3.0445,3.0428,3.0429,3.0426,3.042,3.0417,3.0444,3.0431,3.0444,3.0463,3.047,3.0473,3.0477,3.0487,3.049,3.0445,3.0445,3.0445,0,3.0498,3.05,3.0485,3.0489,3.0487,3.0468,3.0475,3.0471,3.0462,3.0461,3.0451,3.0448,3.044,3.0447,3.0454,3.0452,3.0454,3.0445,3.0474,3.0477,3.048,3.0489,3.0493,3.0447,3.0447,3.0447,3.0447,0,3.0524,3.0526,3.0533,3.0526,3.0525,3.053,3.0516,3.0517,3.0506,3.0498,3.0502,3.0493,3.0488,3.0489,3.0478,3.0495,3.049,3.0478,3.0461,3.0486,3.0495,3.0498,3.045,3.0449,3.0448,3.0448,0,0,3.0566,3.0552,3.0555,3.0552,3.0542,3.0543,3.0548,3.0545,3.0546,3.0541,3.0545,3.0544,3.0533,3.0529,3.0518,3.0523,3.0546,3.051,3.051,3.0518,3.0565,3.0574,3.0579,3.0538,3.0538,3.0539,3.0566,0,3.059,3.0599,3.0586,3.0597,3.06,3.0582,3.0586,3.0581,3.0573,3.0573,3.0564,3.0564,3.0549,3.0547,3.0552,3.0543,3.0555,3.054,3.0541,3.0541,3.0544,3.0583,3.0592,3.0618,3.0569,3.0569,3.057,0,3.062,3.0618,3.063,3.0621,3.0621,3.0625,3.0622,3.0623,3.0616,3.061,3.0608,3.0595,3.0599,3.0583,3.0589,3.0579,3.0579,3.0574,3.0575,3.0574,3.0557,3.0583,3.0626,3.063,3.0575,3.0574,3.0574,0,3.065,3.065,3.0658,3.0656,3.0645,3.0649,3.0644,3.0637,3.0636,3.0634,3.0633,3.063,3.0629,3.0627,3.0614,3.0604,3.0622,3.0605,3.0617,3.0618,3.0621,3.0621,3.0665,3.0621,3.0621,3.0621,3.0621,0,3.068,3.0687,3.0671,3.0676,3.0684,3.067,3.0679,3.0672,3.0667,3.067,3.0654,3.0657,3.064,3.0641,3.0631,3.0638,3.0637,3.0632,3.0629,3.0634,3.0634,3.0633,3.0631,3.0622,3.0622,3.0621,3.0621,0,3.0714,3.0704,3.0711,3.07,3.0698,3.0705,3.0696,3.07,3.0692,3.0696,3.0696,3.0683,3.0684,3.0671,3.0669,3.0662,3.0673,3.0667,3.0676,3.0674,3.0687,3.0687,3.0731,3.0737,3.069,3.069,3.0691,0,3.0733,3.0739,3.0731,3.0732,3.0729,3.0731,3.0731,3.0717,3.0718,3.0712,3.0716,3.0716,3.0715,3.0717,3.0707,3.0706,3.07,3.0716,3.0699,3.0704,3.07,3.07,3.0701,3.0719,3.0719,3.072,3.072,0,3.0769,3.0764,3.0765,3.0764,3.0764,3.0763,3.076,3.0762,3.0747,3.0749,3.075,3.075,3.0748,3.0748,3.0745,3.074,3.0728,3.0726,3.0729,3.0733,3.0738,3.0736,3.0686,3.0725,3.0724,3.0724,3.0724,3.0723,3.0797,3.0802,3.0797,3.0798,3.0795,3.0794,3.0797,3.079,3.0791,3.079,3.0782,3.0785,3.0779,3.0774,3.0771,3.0773,3.0765,3.0769,3.077,3.0771,3.0774,3.0738,3.0772,3.0772,3.0772,3.0772,3.0772,0,3.0832,3.0828,3.083,3.0828,3.0829,3.0819,3.0816,3.0817,3.0821,3.0817,3.0817,3.0819,3.0819,3.081,3.081,3.0813,3.0807,3.0813,3.0813,3.0812,3.0781,3.0779,3.0818,3.0818,3.0818,3.0818,3.0818,3.0818,3.085,3.0858,3.0853,3.086,3.0856,3.0859,3.0859,3.0857,3.0855,3.0858,3.0859,3.0853,3.0847,3.0847,3.0847,3.0844,3.0845,3.0853,3.0848,3.0819,3.0814,3.081,3.0808,3.0853,3.0853,3.0879,3.0879,3.088]}]]